Lexington Weather

Lexington, Massachusetts, USA

68°F
9/23/2021 5:15am 
  • Lexington Conditions: Mostly cloudy
  • Temperature: 67.6°F / 19.8°CWarmer 0.9°F than last hour.
  • Dew Point: 66.4°FIncreased 0.9°Fsince last hour.
  • Relative Humidity: 96
  • Wind: Wind from SSE SSE 1 mph, 10-min avg: Calm, gust: 3 mph
  • Barometer: 30.03 in Steady
  • Visibility: 10 miles
  • Rain Today: 0.00 in
  •   

Regional Weather Roundup
for Boston / Norton, MA

        
000
ASUS41 KBOX 210704
RWRBOX

REGIONAL WEATHER ROUNDUP
NATIONAL WEATHER SERVICE BOSTON/NORTON MA
300 AM EDT TUE SEP 21 2021

NOTE:  "FAIR" INDICATES FEW OR NO CLOUDS BELOW 12,000 FEET WITH NO 
SIGNIFICANT WEATHER AND/OR OBSTRUCTIONS TO VISIBILITY.

MAZALL-210800-
EASTERN MASSACHUSETTS
  
CITY           SKY/WX    TMP DP  RH WIND       PRES   REMARKS
BOSTON         PTCLDY    59  51  75 S3        30.41F                  
BEVERLY        CLEAR     52  52 100 CALM      30.41F                  
LAWRENCE       CLEAR     54  53  97 CALM      30.43F                  
BEDFORD        CLEAR     50  50 100 CALM      30.40F                  
BLUE HILL      NOT AVBL                                               
NORWOOD        CLOUDY    46  44  93 CALM      30.41F                  
MARSHFIELD     PTCLDY    54  50  87 CALM      30.40F                  
PLYMOUTH       CLEAR     50  48  93 CALM      30.41F                  
TAUNTON        CLEAR     45  43  93 CALM      30.40F                  
NEW BEDFORD    CLEAR     48  48 100 CALM      30.39F                  
$$

MAZALL-210800-
CAPE COD AND THE ISLANDS
  
CITY           SKY/WX    TMP DP  RH WIND       PRES   REMARKS
FALMOUTH       MOCLDY    54  52  94 NE3       30.40F                  
HYANNIS        MOCLDY    52  51  97 NE3       30.39F                  
CHATHAM        PTCLDY    62  58  86 VRB5      30.41F                  
PROVINCETOWN   CLEAR     51  50  96 E3        30.42F                  
NANTUCKET      PTCLDY    61  57  87 E7        30.39F                  
MARTHAS VNYRD  CLEAR     50  49  96 CALM      30.39F                  
$$
 
MAZALL-210800-
CENTRAL AND WESTERN MASSACHUSETTS
  
CITY           SKY/WX    TMP DP  RH WIND       PRES   REMARKS
WORCESTER      CLEAR     56  53  90 SE3       30.41F                  
FITCHBURG      CLEAR     51  50  96 CALM      30.42F                  
ORANGE         CLEAR     50  49  96 CALM      30.42S                  
SPRINGFIELD    CLEAR     51  51 100 CALM      30.39F                  
WESTFIELD      CLEAR     54  53  97 NW3       30.40S                  
NORTH ADAMS    CLEAR     56  52  86 CALM      30.38F                  
PITTSFIELD     MOCLDY    56  52  86 VRB3      30.38F                  
$$
 
RIZALL-210800-
RHODE ISLAND
  
CITY           SKY/WX    TMP DP  RH WIND       PRES   REMARKS
PROVIDENCE     CLEAR     55  53  93 CALM      30.41F                  
NEWPORT        CLEAR     56  52  86 E5        30.39F                  
SMITHFIELD     CLEAR     50  49  96 CALM      30.41F                  
WESTERLY       CLEAR     51  51 100 CALM      30.39F                  
$$
 
CTZALL-210800-
CONNECTICUT
  
CITY           SKY/WX    TMP DP  RH WIND       PRES   REMARKS
BRADLEY INTL   PTCLDY    51  51 100 CALM      30.40F                  
HARTFORD       CLEAR     56  54  93 CALM      30.39F                  
BRIDGEPORT     PTCLDY    66  55  67 SE7       30.37F                  
DANBURY        CLEAR     54  51  90 CALM      30.39F                  
GROTON         CLEAR     52  51  97 N5        30.38F                  
NEW HAVEN      CLEAR     66  55  67 SE5       30.38F                  
CHESTER        FAIR      54  54 100 CALM      30.39F                  
MERIDEN        CLEAR     54  51  90 CALM      30.39F                  
WILLIMANTIC    CLEAR     51  50  96 CALM      30.41S                  
OXFORD         CLEAR     55  53  93 E3        30.40S                  
$$

MEZ002-015-021-024-NHZ003-005-008-011-012-014-VTZ005-008-210800-
NORTHERN NEW ENGLAND
  
CITY           SKY/WX    TMP DP  RH WIND       PRES   REMARKS
PORTLAND ME    CLEAR     51  51 100 CALM      30.43F                  
BANGOR ME      FOG       54  54 100 S6        30.43F VSB 1/2          
CONCORD NH     CLEAR     48  47  96 CALM      30.42S                  
MANCHESTER NH  CLEAR     55  50  83 CALM      30.40F                  
NASHUA NH      CLEAR     50  50 100 CALM      30.42F                  
PORTSMOUTH NH  PTCLDY    54  52  95 CALM      30.43F                  
JAFFREY NH     CLEAR     50  50 100 CALM      30.41F                  
KEENE NH       CLEAR     50  50 100 CALM      30.41F                  
BURLINGTON VT  CLEAR     63  55  75 S10G18    30.31S                  
MT. WASHINGTON MOCLDY    52   1  12 S24         N/A                   
$$

NYZ052-076-210800-
EASTERN NEW YORK
  
CITY           SKY/WX    TMP DP  RH WIND       PRES   REMARKS
ALBANY         PTCLDY    58  55  90 SE8       30.36S                  
NEW YORK CITY  PTCLDY    66  54  65 E5        30.35F                  
$$
 
ANZALL-210800-
MARINE OBSERVATIONS
  
STATION/POSITION TIME  TEMP    WIND        PRES    VSBY  WAVE
                       AIR SEA DIR/SP/G                  HT/PER
                 (UTC) (F)     (DEG/KT/KT) (MB)    (MI)  (FT/S)
BOSTON BUOY      0640      64  150/ 10/ 12 1030.1F
BUZZARDS BAY     0600          100/ 12/ 13 1030.5F
NANTUCKET SOUND  0640   65 71  120/ 12/ 14 1029.2F
MASS BAY-STELLWA 0604   63     160/ 12/ 14 1029.7R  1 7/8  4/ 8
ISLE OF SHOALS   0600   64     160/ 11/ 12 1029.7S
S OF BLOCK IS    0626      71                N/A           3/10
$$

......................KEY.........................
  SKY/WX - SKY CONDITION/PRESENT WEATHER
  TMP    - TEMPERATURE IN FAHRENHEIT
  DWPT   - DEWPOINT IN FAHRENHEIT
  RH     - RELATIVE HUMIDITY IN PERCENT
  WIND   - DIRECTION AND SPEED IN MPH
  PRES   - MEAN SEA LEVEL PRESSURE IN INCHES OF HG
  WCI    - WIND CHILL INDEX
  VSB    - VISIBILITY IN MILES
  HX     - HEAT INDEX
  TC     - TEMPERATURE IN CELSIUS
  VRB    - VARIABLE WIND DIRECTION
  N/A    - NOT AVAILABLE
  
      

Other recent Regional Weather Roundups

Thu Sep 23, 5:04am

Thu Sep 23, 4:04am

Thu Sep 23, 3:04am

Thu Sep 23, 2:04am

Thu Sep 23, 1:04am

Thu Sep 23, 12:04am

Wed Sep 22, 11:04pm

Wed Sep 22, 10:04pm

Wed Sep 22, 9:04pm

Wed Sep 22, 8:04pm

Wed Sep 22, 7:04pm

Wed Sep 22, 6:04pm

Wed Sep 22, 5:04pm

Wed Sep 22, 4:04pm

Wed Sep 22, 3:04pm

Wed Sep 22, 2:04pm

Wed Sep 22, 1:04pm

Wed Sep 22, 12:05pm

Wed Sep 22, 11:04am

Wed Sep 22, 10:04am

Wed Sep 22, 9:04am

Wed Sep 22, 8:04am

Wed Sep 22, 7:04am

Wed Sep 22, 6:04am

Wed Sep 22, 5:04am

Wed Sep 22, 4:04am

Wed Sep 22, 3:04am

Wed Sep 22, 2:04am

Wed Sep 22, 1:04am

Wed Sep 22, 12:04am

Tue Sep 21, 11:04pm

Tue Sep 21, 10:04pm

Tue Sep 21, 9:04pm

Tue Sep 21, 8:04pm

Tue Sep 21, 7:04pm

Tue Sep 21, 6:04pm

Tue Sep 21, 5:04pm

Tue Sep 21, 4:04pm

Tue Sep 21, 3:04pm

Tue Sep 21, 2:04pm

Tue Sep 21, 1:04pm

Tue Sep 21, 12:04pm

Tue Sep 21, 11:04am

Tue Sep 21, 10:04am

Tue Sep 21, 9:04am

Tue Sep 21, 8:04am

Tue Sep 21, 7:04am

Tue Sep 21, 6:04am

Tue Sep 21, 5:04am

Tue Sep 21, 4:04am

Tue Sep 21, 2:04am

Tue Sep 21, 1:04am

Tue Sep 21, 12:04am

Mon Sep 20, 11:04pm

Mon Sep 20, 10:04pm

Mon Sep 20, 9:04pm

Mon Sep 20, 8:04pm

Mon Sep 20, 7:04pm

Mon Sep 20, 6:04pm

Mon Sep 20, 5:04pm

Mon Sep 20, 4:04pm

Mon Sep 20, 3:04pm

Mon Sep 20, 2:04pm

Mon Sep 20, 1:04pm

Mon Sep 20, 12:04pm

Mon Sep 20, 11:04am

Mon Sep 20, 10:04am

Mon Sep 20, 9:04am

Mon Sep 20, 7:04am

Mon Sep 20, 6:04am

Mon Sep 20, 5:04am

Mon Sep 20, 4:04am

Mon Sep 20, 3:04am

Mon Sep 20, 2:04am

Mon Sep 20, 1:04am

Mon Sep 20, 12:04am

Sun Sep 19, 11:04pm

Sun Sep 19, 10:04pm

Sun Sep 19, 9:04pm

Sun Sep 19, 8:04pm

Sun Sep 19, 7:04pm

Sun Sep 19, 6:04pm

Sun Sep 19, 5:04pm

Sun Sep 19, 4:04pm

Sun Sep 19, 3:04pm

Sun Sep 19, 2:05pm

Sun Sep 19, 1:04pm

Sun Sep 19, 12:04pm

Sun Sep 19, 11:04am

Sun Sep 19, 10:05am

Sun Sep 19, 9:04am

Sun Sep 19, 8:04am

Sun Sep 19, 7:04am

Sun Sep 19, 6:04am

Sun Sep 19, 5:04am

Sun Sep 19, 4:04am

Sun Sep 19, 3:04am

Sun Sep 19, 2:04am

Sun Sep 19, 1:04am

Sun Sep 19, 12:04am

Sat Sep 18, 11:05pm

Sat Sep 18, 10:04pm

Sat Sep 18, 9:04pm

Sat Sep 18, 8:04pm

Sat Sep 18, 7:04pm

Sat Sep 18, 6:04pm

Sat Sep 18, 5:04pm

Sat Sep 18, 4:04pm

Sat Sep 18, 3:04pm

Sat Sep 18, 2:04pm

Sat Sep 18, 1:04pm

Sat Sep 18, 12:04pm

Sat Sep 18, 11:04am

Sat Sep 18, 10:04am

Sat Sep 18, 9:04am

Sat Sep 18, 8:04am

Sat Sep 18, 7:04am

Sat Sep 18, 6:04am

Sat Sep 18, 5:04am

Sat Sep 18, 4:04am

Sat Sep 18, 3:04am

Sat Sep 18, 2:04am

Sat Sep 18, 1:04am

Sat Sep 18, 12:04am

Fri Sep 17, 11:04pm

Fri Sep 17, 10:04pm

Fri Sep 17, 9:04pm

Fri Sep 17, 8:04pm

Fri Sep 17, 7:04pm

Fri Sep 17, 6:04pm

Fri Sep 17, 5:04pm

Fri Sep 17, 4:04pm

Fri Sep 17, 3:04pm

Fri Sep 17, 2:04pm

Fri Sep 17, 1:04pm

Fri Sep 17, 12:05pm

Fri Sep 17, 11:04am

Fri Sep 17, 10:04am

Fri Sep 17, 9:04am

Fri Sep 17, 8:04am

Fri Sep 17, 7:04am

Fri Sep 17, 6:04am

Fri Sep 17, 5:04am

Fri Sep 17, 4:04am

Fri Sep 17, 3:04am

Fri Sep 17, 2:04am

Fri Sep 17, 1:04am

Fri Sep 17, 12:04am

Thu Sep 16, 11:04pm

Thu Sep 16, 10:04pm

Thu Sep 16, 9:04pm

Thu Sep 16, 8:04pm

Thu Sep 16, 7:04pm

Thu Sep 16, 6:04pm

Thu Sep 16, 5:04pm

Thu Sep 16, 4:04pm

Thu Sep 16, 3:04pm

Thu Sep 16, 2:04pm

Thu Sep 16, 1:05pm

Thu Sep 16, 12:04pm

Thu Sep 16, 11:05am

Thu Sep 16, 10:05am

Thu Sep 16, 9:04am

Thu Sep 16, 8:04am

Thu Sep 16, 7:04am

Thu Sep 16, 6:04am

Meta data:

ID: ed98ea28-41a5-4955-afa8-f641032a9412
Link: https://api.weather.gov/products/ed98ea28-41a5-4955-afa8-f641032a9412